CSN6102 ZBAD-ZYTX

Flight info

Callsign CSN6102
Flight time 1h 6m
Altitude 29099
Route DOTRA6K DOTRA B334 KAKAT W31 CHG A575 OMDUS OMD61A
Aircraft A320/M-SDE3FGHIRWY/LB1

Departure

Time 2026-04-26 05:52
Airport Beijing Daxing International Airport (ZBAD)

Arrival

Time 2026-04-26 06:58
Airport Shenyang Taoxian International Airport (ZYTX)
Time Latitude Longitude Altitude Speed Heading
2026-04-26 05:26 39.50927 116.41705 86 ft 0 kts 185°
2026-04-26 05:44 39.50932 116.41706 89 ft 4 kts 184°
2026-04-26 05:44 39.50959 116.41708 87 ft 4 kts 182°
2026-04-26 05:44 39.50986 116.41708 88 ft 4 kts 179°
2026-04-26 05:44 39.51013 116.41707 86 ft 4 kts 175°
2026-04-26 05:45 39.51039 116.41703 88 ft 4 kts 165°
2026-04-26 05:45 39.51062 116.41690 86 ft 4 kts 124°
2026-04-26 05:45 39.51067 116.41678 89 ft 0 kts 82°
2026-04-26 05:47 39.51067 116.41687 88 ft 2 kts 82°
2026-04-26 05:47 39.51071 116.41720 88 ft 5 kts 82°
2026-04-26 05:47 39.51077 116.41777 90 ft 8 kts 82°
2026-04-26 05:47 39.51083 116.41861 85 ft 11 kts 85°
2026-04-26 05:48 39.51092 116.41969 85 ft 13 kts 83°
2026-04-26 05:48 39.51104 116.42098 85 ft 16 kts 81°
2026-04-26 05:48 39.51179 116.42169 87 ft 17 kts 354°
2026-04-26 05:48 39.51302 116.42148 86 ft 19 kts 353°
2026-04-26 05:49 39.51415 116.42190 85 ft 17 kts 72°
2026-04-26 05:49 39.51446 116.42530 86 ft 14 kts 83°
2026-04-26 05:49 39.51459 116.42668 85 ft 17 kts 84°
2026-04-26 05:50 39.51475 116.42825 85 ft 19 kts 82°
2026-04-26 05:50 39.51489 116.42988 86 ft 18 kts 83°
2026-04-26 05:50 39.51544 116.43110 90 ft 14 kts 15°
2026-04-26 05:50 39.51591 116.43125 93 ft 4 kts 13°
2026-04-26 05:51 39.51602 116.43128 94 ft 0 kts 13°
2026-04-26 05:51 39.51618 116.43134 96 ft 6 kts 13°
2026-04-26 05:51 39.51665 116.43171 99 ft 9 kts 87°
2026-04-26 05:51 39.51644 116.43287 98 ft 31 kts 102°
2026-04-26 05:52 39.51538 116.43869 100 ft 98 kts 103°
2026-04-26 05:52 39.51347 116.44960 98 ft 147 kts 102°
2026-04-26 05:52 39.51109 116.46331 521 ft 157 kts 104°
2026-04-26 05:52 39.50861 116.47703 1149 ft 156 kts 102°
2026-04-26 05:53 39.50609 116.49097 1544 ft 171 kts 101°
2026-04-26 05:53 39.50322 116.50702 1837 ft 195 kts 101°
2026-04-26 05:53 39.49999 116.52505 2188 ft 216 kts 102°
2026-04-26 05:53 39.49644 116.54461 2853 ft 225 kts 101°
2026-04-26 05:54 39.49283 116.56456 3643 ft 230 kts 101°
2026-04-26 05:54 39.48915 116.58490 4440 ft 234 kts 101°
2026-04-26 05:54 39.48541 116.60564 5218 ft 239 kts 98°
2026-04-26 05:54 39.48248 116.62667 5932 ft 242 kts 88°
2026-04-26 05:55 39.48489 116.64816 6601 ft 243 kts 65°
2026-04-26 05:55 39.49275 116.66775 7256 ft 249 kts 57°
2026-04-26 05:55 39.50167 116.68738 7905 ft 257 kts 58°
2026-04-26 05:55 39.51081 116.70767 8550 ft 265 kts 56°
2026-04-26 05:56 39.52022 116.72867 9198 ft 273 kts 57°
2026-04-26 05:56 39.52985 116.75018 9679 ft 290 kts 57°
2026-04-26 05:56 39.54027 116.77342 10157 ft 306 kts 57°
2026-04-26 05:56 39.55118 116.79836 10411 ft 330 kts 59°
2026-04-26 05:57 39.56209 116.82570 10588 ft 353 kts 61°
2026-04-26 05:57 39.57323 116.85525 10732 ft 376 kts 62°
2026-04-26 05:57 39.58482 116.88676 10866 ft 398 kts 63°
2026-04-26 05:57 39.59692 116.91982 11171 ft 411 kts 63°
2026-04-26 05:58 39.60974 116.95261 11714 ft 415 kts 56°
2026-04-26 05:58 39.62841 116.98104 12314 ft 414 kts 39°
2026-04-26 05:58 39.65214 117.00209 12946 ft 413 kts 24°
2026-04-26 05:58 39.67885 117.01559 13590 ft 413 kts 12°
2026-04-26 05:59 39.70711 117.02144 14164 ft 412 kts 360°
2026-04-26 05:59 39.73569 117.01964 14719 ft 411 kts 351°
2026-04-26 05:59 39.76388 117.01563 15277 ft 413 kts 351°
2026-04-26 05:59 39.79254 117.01139 15813 ft 416 kts 350°
2026-04-26 06:00 39.82134 117.00703 16350 ft 418 kts 350°
2026-04-26 06:00 39.85028 117.00261 16871 ft 420 kts 350°
2026-04-26 06:00 39.87936 116.99816 17381 ft 422 kts 350°
2026-04-26 06:00 39.90862 116.99371 17875 ft 424 kts 350°
2026-04-26 06:01 39.93811 116.98923 18336 ft 427 kts 350°
2026-04-26 06:01 39.96725 116.98484 18765 ft 429 kts 350°
2026-04-26 06:01 39.99703 116.98040 19174 ft 432 kts 350°
2026-04-26 06:01 40.02696 116.97592 19570 ft 434 kts 350°
2026-04-26 06:02 40.05709 116.97138 19963 ft 436 kts 350°
2026-04-26 06:02 40.08727 116.96677 20349 ft 438 kts 350°
2026-04-26 06:02 40.11764 116.96213 20706 ft 440 kts 350°
2026-04-26 06:02 40.14816 116.95748 21046 ft 442 kts 350°
2026-04-26 06:03 40.17836 116.95291 21382 ft 444 kts 350°
2026-04-26 06:03 40.20910 116.94827 21701 ft 446 kts 350°
2026-04-26 06:03 40.24003 116.94360 21998 ft 448 kts 350°
2026-04-26 06:03 40.27111 116.93891 22285 ft 450 kts 350°
2026-04-26 06:04 40.30225 116.93422 22584 ft 452 kts 350°
2026-04-26 06:04 40.33353 116.92953 22860 ft 453 kts 350°
2026-04-26 06:04 40.36454 116.92484 23158 ft 455 kts 350°
2026-04-26 06:04 40.39591 116.92005 23550 ft 454 kts 350°
2026-04-26 06:05 40.42725 116.91522 23910 ft 452 kts 349°
2026-04-26 06:05 40.45844 116.91039 24278 ft 451 kts 349°
2026-04-26 06:05 40.48928 116.90365 24640 ft 447 kts 342°
2026-04-26 06:05 40.51908 116.89271 25007 ft 445 kts 340°
2026-04-26 06:06 40.54878 116.88146 25397 ft 443 kts 340°
2026-04-26 06:06 40.57797 116.87034 25806 ft 442 kts 339°
2026-04-26 06:06 40.60747 116.85906 26276 ft 439 kts 339°
2026-04-26 06:06 40.63668 116.84788 26740 ft 436 kts 339°
2026-04-26 06:07 40.66577 116.83678 27167 ft 435 kts 339°
2026-04-26 06:07 40.69483 116.82568 27582 ft 434 kts 339°
2026-04-26 06:07 40.72381 116.81464 28007 ft 434 kts 339°
2026-04-26 06:07 40.75336 116.80581 28440 ft 439 kts 346°
2026-04-26 06:08 40.78409 116.80328 28864 ft 447 kts 355°
2026-04-26 06:08 40.81488 116.80477 29024 ft 452 kts 355°
2026-04-26 06:08 40.84643 116.80642 29021 ft 455 kts 355°
2026-04-26 06:09 40.90983 116.80978 29021 ft 456 kts 356°
2026-04-26 06:09 40.97329 116.81317 29026 ft 456 kts 356°
2026-04-26 06:10 41.03620 116.81651 29029 ft 455 kts 355°
2026-04-26 06:10 41.09939 116.81979 29029 ft 455 kts 355°
2026-04-26 06:11 41.16261 116.82307 29026 ft 454 kts 355°
2026-04-26 06:11 41.22534 116.82630 29036 ft 454 kts 355°
2026-04-26 06:12 41.28853 116.82960 29035 ft 454 kts 355°
2026-04-26 06:12 41.35173 116.83303 29031 ft 455 kts 355°
2026-04-26 06:13 41.41499 116.83643 29059 ft 455 kts 355°
2026-04-26 06:13 41.47787 116.83962 29046 ft 455 kts 355°
2026-04-26 06:14 41.54113 116.84293 29038 ft 455 kts 355°
2026-04-26 06:14 41.60438 116.84639 29057 ft 455 kts 355°
2026-04-26 06:15 41.66673 116.86433 29052 ft 476 kts 17°
2026-04-26 06:15 41.69574 116.88670 29035 ft 488 kts 30°
2026-04-26 06:15 41.72099 116.91768 29032 ft 500 kts 44°
2026-04-26 06:15 41.74086 116.95641 29055 ft 510 kts 58°
2026-04-26 06:16 41.75621 116.99952 29047 ft 513 kts 60°
2026-04-26 06:16 41.78610 117.08569 29015 ft 514 kts 60°
2026-04-26 06:17 41.81614 117.17269 29015 ft 514 kts 60°
2026-04-26 06:17 41.84625 117.25981 29019 ft 515 kts 60°
2026-04-26 06:18 41.87617 117.34647 29023 ft 515 kts 61°
2026-04-26 06:18 41.90618 117.43391 29005 ft 516 kts 62°
2026-04-26 06:19 41.93607 117.52143 29020 ft 516 kts 61°
2026-04-26 06:19 41.96576 117.60854 29038 ft 516 kts 61°
2026-04-26 06:20 41.99564 117.69637 29029 ft 517 kts 61°
2026-04-26 06:20 42.02544 117.78427 29029 ft 517 kts 62°
2026-04-26 06:21 42.05522 117.87233 29053 ft 517 kts 61°
2026-04-26 06:21 42.08474 117.95983 29046 ft 517 kts 61°
2026-04-26 06:22 42.11437 118.04806 29040 ft 517 kts 62°
2026-04-26 06:22 42.14392 118.13645 29038 ft 517 kts 62°
2026-04-26 06:23 42.17191 118.22574 29047 ft 521 kts 69°
2026-04-26 06:23 42.18430 118.32159 29049 ft 527 kts 86°
2026-04-26 06:24 42.18546 118.42042 29047 ft 527 kts 87°
2026-04-26 06:24 42.18678 118.51928 29049 ft 527 kts 87°
2026-04-26 06:25 42.18804 118.61732 29046 ft 527 kts 88°
2026-04-26 06:25 42.18905 118.71605 29050 ft 527 kts 88°
2026-04-26 06:26 42.18026 118.81405 29050 ft 528 kts 105°
2026-04-26 06:26 42.15264 118.90521 29058 ft 525 kts 120°
2026-04-26 06:27 42.11807 118.99128 29049 ft 526 kts 120°
2026-04-26 06:27 42.08323 119.07809 29046 ft 527 kts 120°
2026-04-26 06:28 42.04834 119.16485 29052 ft 527 kts 120°
2026-04-26 06:28 42.01359 119.25105 29045 ft 528 kts 120°
2026-04-26 06:29 41.97843 119.33784 29049 ft 529 kts 121°
2026-04-26 06:29 41.94307 119.42457 29050 ft 529 kts 121°
2026-04-26 06:30 41.90826 119.51117 29055 ft 530 kts 120°
2026-04-26 06:30 41.87379 119.59863 29055 ft 530 kts 120°
2026-04-26 06:31 41.83915 119.68611 29065 ft 530 kts 120°
2026-04-26 06:31 41.80448 119.77265 29057 ft 530 kts 120°
2026-04-26 06:32 41.76947 119.85971 29047 ft 531 kts 120°
2026-04-26 06:32 41.73442 119.94676 29056 ft 531 kts 120°
2026-04-26 06:33 41.69929 120.03382 29053 ft 531 kts 121°
2026-04-26 06:33 41.66433 120.12016 29063 ft 531 kts 121°
2026-04-26 06:34 41.62909 120.20700 29059 ft 531 kts 121°
2026-04-26 06:34 41.59376 120.29369 29061 ft 531 kts 121°
2026-04-26 06:35 41.56047 120.38179 29070 ft 533 kts 112°
2026-04-26 06:35 41.54332 120.47721 29069 ft 534 kts 95°
2026-04-26 06:36 41.54430 120.57585 28688 ft 532 kts 84°
2026-04-26 06:36 41.54692 120.62516 28409 ft 533 kts 84°
2026-04-26 06:36 41.54955 120.67453 28134 ft 533 kts 84°
2026-04-26 06:36 41.55216 120.72383 27863 ft 532 kts 84°
2026-04-26 06:37 41.55474 120.77314 27596 ft 532 kts 84°
2026-04-26 06:37 41.55728 120.82239 27330 ft 532 kts 84°
2026-04-26 06:37 41.55976 120.87107 27069 ft 532 kts 84°
2026-04-26 06:37 41.56221 120.92045 26810 ft 532 kts 84°
2026-04-26 06:38 41.56462 120.96968 26546 ft 532 kts 84°
2026-04-26 06:38 41.56703 121.01896 26314 ft 532 kts 84°
2026-04-26 06:38 41.56943 121.06836 26058 ft 533 kts 84°
2026-04-26 06:38 41.57175 121.11706 25812 ft 533 kts 84°
2026-04-26 06:39 41.57411 121.16650 25564 ft 533 kts 84°
2026-04-26 06:39 41.57637 121.21591 25319 ft 533 kts 85°
2026-04-26 06:39 41.57817 121.26546 25072 ft 533 kts 86°
2026-04-26 06:39 41.57959 121.31497 24827 ft 533 kts 86°
2026-04-26 06:40 41.58079 121.36445 24582 ft 533 kts 86°
2026-04-26 06:40 41.58191 121.41387 24337 ft 532 kts 86°
2026-04-26 06:40 41.58304 121.46252 24102 ft 530 kts 86°
2026-04-26 06:40 41.58424 121.51161 23865 ft 528 kts 86°
2026-04-26 06:41 41.58550 121.56049 23633 ft 525 kts 86°
2026-04-26 06:41 41.58682 121.60916 23384 ft 523 kts 86°
2026-04-26 06:41 41.58815 121.65768 23104 ft 522 kts 86°
2026-04-26 06:41 41.58946 121.70607 22829 ft 520 kts 86°
2026-04-26 06:42 41.59071 121.75419 22560 ft 517 kts 86°
2026-04-26 06:42 41.59189 121.80214 22288 ft 515 kts 86°
2026-04-26 06:42 41.59300 121.84919 22023 ft 513 kts 86°
2026-04-26 06:42 41.59413 121.89673 21747 ft 511 kts 86°
2026-04-26 06:43 41.59525 121.94401 21491 ft 508 kts 86°
2026-04-26 06:43 41.59635 121.99111 21229 ft 506 kts 86°
2026-04-26 06:43 41.59741 122.03799 20970 ft 503 kts 86°
2026-04-26 06:43 41.59839 122.08453 20159 ft 499 kts 88°
2026-04-26 06:44 41.59625 122.13075 19211 ft 496 kts 96°
2026-04-26 06:44 41.59128 122.17545 18385 ft 490 kts 97°
2026-04-26 06:44 41.58627 122.22011 17390 ft 484 kts 97°
2026-04-26 06:44 41.58137 122.26427 16476 ft 478 kts 97°
2026-04-26 06:45 41.57658 122.30767 15657 ft 469 kts 97°
2026-04-26 06:45 41.57184 122.35061 14871 ft 463 kts 97°
2026-04-26 06:45 41.56719 122.39259 14068 ft 450 kts 97°
2026-04-26 06:45 41.56259 122.43353 13014 ft 436 kts 97°
2026-04-26 06:46 41.55824 122.47178 12390 ft 411 kts 97°
2026-04-26 06:46 41.55401 122.50885 11705 ft 402 kts 97°
2026-04-26 06:46 41.54986 122.54553 11247 ft 393 kts 97°
2026-04-26 06:46 41.54587 122.58072 11108 ft 375 kts 97°
2026-04-26 06:47 41.54203 122.61445 10993 ft 360 kts 97°
2026-04-26 06:47 41.53830 122.64680 10868 ft 346 kts 97°
2026-04-26 06:47 41.53470 122.67796 10745 ft 333 kts 97°
2026-04-26 06:47 41.53122 122.70801 10622 ft 323 kts 97°
2026-04-26 06:48 41.52783 122.73727 10423 ft 315 kts 96°
2026-04-26 06:48 41.52458 122.76547 10271 ft 308 kts 96°
2026-04-26 06:48 41.52133 122.79373 10204 ft 308 kts 96°
2026-04-26 06:48 41.51807 122.82200 10100 ft 308 kts 96°
2026-04-26 06:49 41.51479 122.85013 9962 ft 306 kts 96°
2026-04-26 06:49 41.51145 122.87856 9453 ft 311 kts 96°
2026-04-26 06:49 41.50813 122.90674 9209 ft 305 kts 97°
2026-04-26 06:49 41.50490 122.93427 8851 ft 303 kts 97°
2026-04-26 06:50 41.50165 122.96197 8511 ft 301 kts 97°
2026-04-26 06:50 41.49842 122.98935 8002 ft 297 kts 96°
2026-04-26 06:50 41.49523 123.01640 7392 ft 294 kts 96°
2026-04-26 06:50 41.49204 123.04313 6814 ft 290 kts 96°
2026-04-26 06:51 41.48889 123.06953 6221 ft 287 kts 96°
2026-04-26 06:51 41.48275 123.12101 5240 ft 270 kts 96°
2026-04-26 06:51 41.47989 123.14454 5091 ft 251 kts 96°
2026-04-26 06:52 41.47718 123.16668 4974 ft 234 kts 95°
2026-04-26 06:52 41.47468 123.18727 4870 ft 216 kts 96°
2026-04-26 06:52 41.47249 123.20637 4772 ft 202 kts 90°
2026-04-26 06:52 41.47368 123.22453 4695 ft 193 kts 69°
2026-04-26 06:53 41.47912 123.24069 4595 ft 191 kts 51°
2026-04-26 06:53 41.48762 123.25427 4402 ft 190 kts 45°
2026-04-26 06:53 41.49642 123.26739 4167 ft 190 kts 46°
2026-04-26 06:53 41.50517 123.28049 3918 ft 193 kts 45°
2026-04-26 06:54 41.51420 123.29401 3636 ft 197 kts 46°
2026-04-26 06:54 41.52329 123.30766 3406 ft 196 kts 46°
2026-04-26 06:54 41.53225 123.32112 3127 ft 191 kts 45°
2026-04-26 06:54 41.54105 123.33435 2854 ft 188 kts 45°
2026-04-26 06:55 41.54961 123.34723 2611 ft 182 kts 46°
2026-04-26 06:55 41.55771 123.35941 2371 ft 171 kts 45°
2026-04-26 06:55 41.56505 123.37049 2160 ft 150 kts 44°
2026-04-26 06:55 41.57160 123.38035 1970 ft 138 kts 43°
2026-04-26 06:56 41.57785 123.38973 1796 ft 133 kts 44°
2026-04-26 06:56 41.58390 123.39883 1612 ft 130 kts 43°
2026-04-26 06:56 41.58997 123.40796 1442 ft 132 kts 45°
2026-04-26 06:56 41.59606 123.41713 1254 ft 132 kts 42°
2026-04-26 06:57 41.60216 123.42627 1067 ft 133 kts 44°
2026-04-26 06:57 41.60824 123.43550 840 ft 133 kts 46°
2026-04-26 06:57 41.61442 123.44484 589 ft 135 kts 45°
2026-04-26 06:57 41.62069 123.45433 424 ft 137 kts 46°
2026-04-26 06:58 41.62702 123.46393 304 ft 137 kts 46°
2026-04-26 06:58 41.63329 123.47347 205 ft 129 kts 44°
2026-04-26 06:58 41.63794 123.48023 207 ft 58 kts 49°
2026-04-26 06:58 41.64021 123.48359 211 ft 48 kts 49°
2026-04-26 06:59 41.64210 123.48678 203 ft 35 kts 62°
2026-04-26 06:59 41.64272 123.48913 207 ft 27 kts 78°
2026-04-26 06:59 41.64242 123.49078 214 ft 19 kts 137°
2026-04-26 06:59 41.64144 123.49196 215 ft 18 kts 139°
2026-04-26 07:00 41.64033 123.49240 211 ft 16 kts 206°
2026-04-26 07:00 41.63970 123.49142 214 ft 15 kts 230°
2026-04-26 07:00 41.63947 123.49107 216 ft 1 kts 225°
2026-04-26 07:00 41.63935 123.49092 211 ft 4 kts 226°
2026-04-26 07:01 41.63912 123.49058 214 ft 6 kts 230°
2026-04-26 07:01 41.63877 123.49002 207 ft 9 kts 230°
2026-04-26 07:01 41.63829 123.48929 210 ft 12 kts 228°
2026-04-26 07:01 41.63766 123.48837 213 ft 15 kts 228°
2026-04-26 07:02 41.63704 123.48743 211 ft 13 kts 229°
2026-04-26 07:02 41.63650 123.48733 214 ft 6 kts 144°
2026-04-26 07:02 41.63617 123.48770 207 ft 2 kts 140°
2026-04-26 07:02 41.63613 123.48775 212 ft 0 kts 140°